Flag for Bahamas Weather past 2 weeks in Nassau, Bahamas

Now
81 °F

Partly cloudy.


Feels Like: 86 °F
Forecast: 80 / 87 °F
Wind: 3 mph from Southwest

Location: Nassau Airport

Current Time: Sep 21, 2014 at 6:58:49 AM

Latest Report: Sep 21, 2014 at 6:00 AM


Visibility: N/A

Pressure: 29.99 "Hg

Humidity: 84%

Dew point: 75 °F

Location of NassauLocation

Historic Weather in Nassau — Graph

°F

Nassau temperature yesterday

Maximum temperature yesterday: 91 °F (at 2:00 PM)
Minimum temperature yesterday: 77 °F (at 2:00 AM)
Average temperature yesterday: 82 °F

Past Weeks' High & Low Weather Summary

 TemperatureHumidityPressure
High91 °F (Sep 20, 2:00 PM)100% (Sep 11, 5:00 AM)30.16 "Hg (Sep 11, 5:00 AM)
Low72 °F (Sep 13, 1:00 AM)55% (Sep 16, 4:00 PM)29.89 "Hg (Sep 20, 4:00 PM)
Average82 °F79%30.02 "Hg
* Reported Sep 6 8:00 AM — Sep 21 5:00 AM, Nassau, Weather by CustomWeather, © 2014

Note: Actual official high and low records may vary slightly from our data, if they occured in-between our weather recording intervals... More about our weather records

Advertising

Nassau weather history for previous 24 hours

 ConditionsComfort  
Time TempWeatherWind HumidityBarometerVisibility
5:00 AM
Sep 21
81 °FPartly cloudy.3 mph94%29.97 "HgN/A
4:00 AM81 °FPassing clouds.No wind84%29.96 "HgN/A
3:00 AM81 °FPassing clouds.No wind84%29.96 "HgN/A
1:00 AM82 °FPartly cloudy.3 mph79%29.97 "HgN/A
12:00 AM82 °FPartly cloudy.No wind79%29.98 "HgN/A
11:00 PM
Sep 20
82 °FPartly cloudy.5 mph89%30.01 "HgN/A
10:00 PM82 °FThunderstorms. Overcast.No wind79%29.98 "HgN/A
9:00 PM82 °FThunderstorms. Passing clouds.No wind79%29.97 "HgN/A
8:00 PM82 °FThunderstorms. Cloudy.5 mph84%29.95 "HgN/A
7:00 PM81 °FThunderstorms. Cloudy.3 mph84%29.92 "HgN/A
6:00 PM82 °FThunderstorms. Broken clouds.3 mph79%29.91 "HgN/A
5:00 PM86 °FRain showers. Broken clouds.7 mph79%29.90 "HgN/A
4:00 PM86 °FBroken clouds.8 mph70%29.89 "HgN/A
3:00 PM88 °FBroken clouds.7 mph66%N/AN/A
2:00 PM91 °FPartly sunny.7 mph67%29.93 "HgN/A
9:00 AM84 °FPartly sunny.6 mph74%29.96 "HgN/A
8:00 AM81 °FBroken clouds.No wind94%29.95 "HgN/A
7:00 AM79 °FPassing clouds.No wind84%29.95 "HgN/A
6:00 AM79 °FPassing clouds.No wind84%29.94 "HgN/A
Weather by CustomWeather, © 2014

See weather overviewHow to use our weather pages